Location: Unspecified
(37.9740°N, 0.0000°E)
Time: 02:51:26
(UTC+00:00)

Burner II No. 8 - Visible Passes

Search period start: 04 April 2026 00:00
Search period end: 14 April 2026 00:00
Orbit: 767 x 810 km, 98.8° (Epoch: 29 March)

Date Brightness Start Highest point End Pass type
(mag) Time Alt. Az. Time Alt. Az. Time Alt. Az.
4 Apr 9.9 01:48:19 18° NE 01:48:19 18° NE 01:51:09 10° NNE visible
4 Apr 8.6 03:28:58 30° NW 03:28:58 30° NW 03:31:45 10° NNW visible
5 Apr 8.3 02:58:21 45° N 02:58:21 45° N 03:01:51 10° N visible
6 Apr 8.8 02:27:44 37° NE 02:27:44 37° NE 02:31:35 10° N visible
6 Apr 9.1 04:08:24 17° WNW 04:08:24 17° WNW 04:10:12 10° NW visible
7 Apr 9.6 01:57:06 22° ENE 01:57:06 22° ENE 02:00:52 10° NNE visible
7 Apr 8.4 03:37:47 32° WNW 03:37:47 32° WNW 03:41:00 10° NNW visible
8 Apr 10.3 01:26:29 11° ENE 01:27:25 11° ENE 01:28:58 10° NE visible
8 Apr 7.8 03:07:09 57° NNW 03:07:09 57° NNW 03:11:13 10° NNW visible
9 Apr 8.3 02:36:31 48° NE 02:36:31 48° NE 02:41:04 10° N visible
9 Apr 9.2 04:17:12 16° WNW 04:17:12 16° WNW 04:19:08 10° NW visible
10 Apr 9.3 02:05:54 26° ENE 02:06:19 26° ENE 02:10:30 10° NNE visible
10 Apr 8.4 03:46:35 31° WNW 03:46:35 31° WNW 03:50:12 10° NNW visible
11 Apr 10.1 01:35:17 13° ENE 01:36:39 14° ENE 01:39:12 10° NNE visible
11 Apr 7.5 03:15:57 63° WNW 03:15:57 63° WNW 03:20:33 10° NNW visible
12 Apr 7.9 02:45:20 61° E 02:45:27 61° ENE 02:50:30 10° N visible
12 Apr 9.2 04:26:00 14° W 04:26:00 14° W 04:27:51 10° WNW visible
13 Apr 9.1 02:14:43 30° E 02:15:35 31° ENE 02:20:05 10° N visible
13 Apr 8.4 03:55:23 27° W 03:55:23 27° W 03:59:20 10° NW visible
